Regional Weather Roundup
Issued by NWS

Home | Current Version | Previous Version | Graphics & Text | Print | Product List | Glossary On
Versions: 1 2 3 4 5 6 7 8 9 10 11 12 13 14 15 16 17 18 19 20 21 22 23 24 25 26 27 28 29 30 31 32 33 34 35 36 37 38 39 40 41 42 43 44 45 46 47 48 49
000
ASUS45 KTFX 300710
RWRMT
MONTANA REGIONAL WEATHER ROUNDUP
NATIONAL WEATHER SERVICE GREAT FALLS MT
100 AM MDT TUE JUN 30 2015

NOTE: "FAIR" INDICATES FEW OR NO CLOUDS BELOW 12000 FEET WITH NO
SIGNIFICANT WEATHER AND/OR OBSTRUCTIONS TO VISIBILITY.

MTZ001>007-043-300800-
WEST OF THE DIVIDE

CITY           SKY/WX    TMP DP  RH WIND       PRES   REMARKS
KALISPELL      MOSUNNY   72  56  57 VRB7      29.98R
MISSOULA       MOCLDY    72  61  68 SE9       30.04R
BUTTE          PTCLDY    60  55  83 E5        30.19S
MULLAN PASS    CLEAR     66  51  58 VRB6      30.21S
DEER LODGE       N/A     61  61 100 CALM      30.17S
EUREKA           N/A     64  61  88 NW3       30.01S
HAMILTON         N/A     68  63  83 SE5       30.08R
RONAN            N/A     69  61  76 CALM      30.04R
$$

MTZ008-052>055-300800-
SOUTHWEST MONTANA

CITY           SKY/WX    TMP DP  RH WIND       PRES   REMARKS
BOZEMAN        MOCLDY    64  55  72 MISG      30.11F
DILLON         MOCLDY    64  56  75 S8        30.14F
W YELLOWSTONE  CLOUDY    59  54  82 CALM      30.30F
THREE FORKS      N/A     63  63 100 CALM      30.09F
TWIN BRIDGES     N/A     65  54  67 SE2       30.11F
$$

MTZ009-010-012-014-046-048-049-054-300800-
EAST SLOPES AND CENTRAL MONTANA

CITY           SKY/WX    TMP DP  RH WIND       PRES   REMARKS
CUT BANK       MOCLDY    62  57  83 W8        30.01R
GREAT FALLS    MOCLDY    69  59  70 SW10      30.03R
MALMSTROM AFB  CLOUDY    70  60  71 SW7       30.02R
HELENA         PTCLDY    69  58  67 CALM      30.06S
$$

MTZ011-013-016-021-045-047-050-051-300800-
NORTH CENTRAL MONTANA

CITY           SKY/WX    TMP DP  RH WIND       PRES   REMARKS
HAVRE          CLOUDY    74  51  44 SE5       29.95S HAZE
CHINOOK          N/A     73  48  40 E9        29.95F
FORT BENTON      N/A     72  63  73 S8        29.95F
$$

MTZ017>020-022>027-061-062-300800-
NORTHEAST MONTANA

CITY           SKY/WX    TMP DP  RH WIND       PRES   REMARKS
JORDAN           N/A     73  46  38 E6        29.99S
SIDNEY         CLOUDY    70  54  56 N8        29.99R VSB 1
WOLF POINT     CLOUDY    71  50  47 NE10      29.97F HAZE
MALTA            N/A     72  46  39 CALM      29.95S
PLENTYWOOD       N/A     66  52  59 NE5       30.00S
POPLAR           N/A     68  52  56 CALM      29.98F
SCOBEY           N/A     66  45  46 CALM      29.99F
$$

MTZ028>42-056>058-300800-
SOUTHCENTRAL AND SOUTHEAST MONTANA

CITY           SKY/WX    TMP DP  RH WIND       PRES   REMARKS
BAKER          CLOUDY    69  61  75 SE6       29.98F
BILLINGS       CLOUDY    73  57  57 SW15      30.04F
LIVINGSTON     MOCLDY    63  59  87 CALM      30.11F
MILES CITY     CLOUDY    77  57  50 N7        29.96R
BIG TIMBER       N/A     66  57  72 SW9       30.10F
FORSYTH          N/A     79  50  36 E5        29.94F
LAUREL           N/A     69  55  60 CALM      30.04F
ROUNDUP          N/A     74  54  49 CALM      29.95R
$$

REGIONAL REPORTS...DAKOTAS

CITY           SKY/WX    TMP DP  RH WIND       PRES   REMARKS
WILLISTON      CLOUDY    71  57  61 N9        29.97F HAZE
MINOT          CLOUDY    68  63  84 E7        29.93F
DICKINSON      CLOUDY    70  63  78 E6        29.94F
BEACH          FAIR      68  64  88 N5        29.99S
CROSBY         FAIR      63  63 100 SW3       29.98F FOG
BISMARCK       CLOUDY    70  65  84 NE7       29.94S
GRAND FORKS    MOCLDY    58  57  97 NW6       29.94R
FARGO          PTCLDY    61  57  87 CALM      29.93R
BUFFALO SD       N/A     70  58  65 NW6       29.92R
RAPID CITY     PTCLDY    68  57  68 W7        30.01F
$$

REGIONAL REPORTS...WYOMING/IDAHO/WASHINGTON

CITY           SKY/WX    TMP DP  RH WIND       PRES   REMARKS
GILLETTE       CLOUDY    68  55  63 S8        30.08F
SHERIDAN       CLOUDY    76  52  43 W9        30.10R
BUFFALO WY     CLOUDY    71  52  50 NW15      30.16R
CODY           CLOUDY    73  52  46 SW17G28   30.19F
YELLOWSTONE LA   N/A     57  51  80 VRB3      30.43F
IDAHO FALLS    MOCLDY    64  56  75 N5        30.15R
SALMON         CLEAR     64  61  88 CALM      30.07R
BOISE          MOCLDY    87  54  32 SE14G23   29.94R
SPOKANE        PTCLDY    77  55  46 NE6       29.97R
$$

REGIONAL REPORTS...ALBERTA

CITY           SKY/WX    TMP DP  RH WIND       PRES   REMARKS
EDMONTON       CLOUDY    61  55  82 S2        29.99R
CALGARY        TSTM      63  59  88 VRB3      29.99F
LETHBRIDGE     CLOUDY    63  61  94 W29G37    30.00R THUNDER
MEDICINE HAT   CLOUDY    70  45  40 E12G20    29.91F HAZE
CARDSTON         N/A     61  61 100 NW12G21     N/A
MILK RIVER       N/A     61  54  77 SW6         N/A
$$

REGIONAL REPORTS...SASKATCHEWAN

CITY           SKY/WX    TMP DP  RH WIND       PRES   REMARKS
SWIFT CURRENT  CLOUDY    63  52  67 SE8       30.00F HAZE
REGINA         CLOUDY    63  57  82 NW6       30.00R SMOKE
SASKATOON      CLOUDY    64  57  77 SW3       30.00F SMOKE
CYPRESS HILLS    N/A     61  39  44 SE10G18     N/A
VAL MARIE        N/A     66  45  45 SE15G22     N/A
ROCKGLEN         N/A     64  48  55 S1          N/A
$$



USA.gov is the U.S. government's official web portal to all federal, state and local government web resources and services.